SV2BZQ-2 Thessalonik GR current weather conditions

sailwx.info

Wind from 338

Air temperature 7.2° C
Dewpoint 3.8° C

Last reported at 2014-Nov-22 22:41 UTC.
Time now 2014-Nov-22 23:55 UTC

Location: N 40°41' E 022°51'.
View on Google Maps.

See reports from other nearby stations

  
Tides and Currents Weather Stations Pressure Air Temp Water Temp Dewpoint Dewpoint Depression Visibility Wind Speed Wind Dir Waves Ship Positions
date/time (UTC)wind fromknots sea level pressurealtimeterstation pressurevisibilityair tempwater tempwave heightnotes
2014-Nov-22 22:41 338 7.2
2014-Nov-22 22:31 338 2 gusting 2 6.7
2014-Nov-22 22:11 317 2 gusting 4 6.7
2014-Nov-22 22:01 325 1 gusting 2 6.7
2014-Nov-22 21:54 327 1 gusting 3 6.1
2014-Nov-22 21:41 301 0 gusting 1 6.1
2014-Nov-22 21:31 300 1 gusting 2 6.7
2014-Nov-22 21:11 303 6.7
2014-Nov-22 21:01 304 6.7
2014-Nov-22 20:53 304 1 gusting 5 6.7
2014-Nov-22 20:41 317 0 gusting 2 7.2
2014-Nov-22 20:31 312 0 gusting 2 7.2
2014-Nov-22 20:11 314 2 gusting 4 7.2
2014-Nov-22 20:01 305 2 gusting 4 7.8
2014-Nov-22 19:52 300 2 gusting 3 7.8
2014-Nov-22 19:41 309 0 gusting 2 8.3
2014-Nov-22 19:37 310 8.3
2014-Nov-22 19:31 309 8.3
2014-Nov-22 19:22 310 0 gusting 2 8.3
2014-Nov-22 19:11 310 0 gusting 2 8.9
2014-Nov-22 19:07 310 8.9
2014-Nov-22 19:01 310 0 gusting 1 8.9
2014-Nov-22 18:52 311 0 gusting 2 8.9
2014-Nov-22 18:41 313 2 gusting 2 9.4
2014-Nov-22 18:31 315 1 gusting 2 9.4
2014-Nov-22 18:11 316 2 gusting 4 9.4
2014-Nov-22 18:01 322 1 gusting 4 9.4
2014-Nov-22 17:51 332 2 gusting 4 9.4
2014-Nov-22 17:41 328 2 gusting 6 9.4
2014-Nov-22 17:31 311 1 gusting 4 9.4
2014-Nov-22 17:11 309 0 gusting 2 9.4
2014-Nov-22 17:01 307 10.0
2014-Nov-22 16:41 309 0 gusting 4 10.0
2014-Nov-22 16:31 311 1 gusting 2 10.0
2014-Nov-22 16:11 310 1 gusting 4 10.6
2014-Nov-22 16:01 318 10.6
2014-Nov-22 15:41 326 11.1
2014-Nov-22 15:31 325 2 gusting 6 11.1
2014-Nov-22 15:11 302 0 gusting 2 11.7
2014-Nov-22 15:01 296 1 gusting 2 12.2
2014-Nov-22 14:51 308 5 gusting 6 12.2
2014-Nov-22 14:50 298 3 gusting 9 12.2
2014-Nov-22 14:41 306 2 gusting 6 12.8
2014-Nov-22 14:34 293 1 gusting 7 12.2
2014-Nov-22 14:19 304 3 gusting 7 12.8
2014-Nov-22 14:01 325 2 gusting 5 13.3
2014-Nov-22 13:51 321 2 gusting 4 13.3
2014-Nov-22 13:49 315 2 gusting 7 13.3
2014-Nov-22 13:34 335 3 gusting 7 13.3
2014-Nov-22 13:19 317 2 gusting 8 13.3
2014-Nov-22 13:03 309 0 gusting 7 13.3
2014-Nov-22 12:51 315 1 gusting 2 13.3
2014-Nov-22 12:48 304 2 gusting 7 13.3
2014-Nov-22 12:41 303 4 gusting 4 13.3
2014-Nov-22 12:33 269 4 gusting 10 13.3
2014-Nov-22 12:21 295 2 gusting 7 13.3
2014-Nov-22 12:18 329 1 gusting 8 13.3
2014-Nov-22 12:11 301 4 gusting 6 13.3
2014-Nov-22 12:03 296 2 gusting 6 13.3
2014-Nov-22 11:51 289 2 gusting 6 13.3
2014-Nov-22 11:48 277 4 gusting 8 12.8
2014-Nov-22 11:33 263 3 gusting 10 12.8
2014-Nov-22 11:17 321 2 gusting 7 12.8
2014-Nov-22 11:02 336 3 gusting 7 12.8
2014-Nov-22 10:51 284 4 gusting 6 12.8
2014-Nov-22 10:47 286 3 gusting 8 12.8
2014-Nov-22 10:32 287 2 gusting 7 12.8
2014-Nov-22 10:17 274 2 gusting 6 12.8
2014-Nov-22 10:02 341 0 gusting 8 12.2
2014-Nov-22 09:51 301 6 gusting 10 12.2
2014-Nov-22 09:46 322 3 gusting 8 12.2
2014-Nov-22 09:32 342 4 gusting 10 11.7
2014-Nov-22 09:16 333 6 gusting 10 11.7
2014-Nov-22 09:02 334 5 gusting 10 11.1
2014-Nov-22 08:51 331 6 gusting 10 11.1
2014-Nov-22 08:46 317 5 gusting 13 11.1
2014-Nov-22 08:31 327 7 gusting 10 11.1
2014-Nov-22 08:15 332 4 gusting 10 10.6
2014-Nov-22 08:01 317 5 gusting 6 10.6
2014-Nov-22 07:51 348 5 gusting 7 10.6
2014-Nov-22 07:45 329 3 gusting 9 10.0
2014-Nov-22 07:31 008 2 gusting 5 10.0
2014-Nov-22 07:14 344 5 gusting 11 9.4
2014-Nov-22 07:01 326 2 gusting 5 8.9
2014-Nov-22 06:44 329 5 gusting 11 8.3
2014-Nov-22 06:31 322 2 gusting 6 8.3
2014-Nov-22 06:15 321 1 gusting 7 7.8
2014-Nov-22 06:01 335 4 gusting 6 7.8
2014-Nov-22 05:59 340 3 gusting 10 7.8
2014-Nov-22 05:51 347 1 gusting 4 7.8
2014-Nov-22 05:43 321 7.8
2014-Nov-22 05:31 332 4 gusting 5 7.8
2014-Nov-22 05:13 319 4 gusting 8 7.8
2014-Nov-22 05:01 334 1 gusting 5 7.8
2014-Nov-22 04:58 340 2 gusting 5 7.8
2014-Nov-22 04:51 325 4 gusting 4 7.8
2014-Nov-22 04:43 338 4 gusting 11 7.8
2014-Nov-22 04:31 345 5 gusting 8 7.8
2014-Nov-22 04:13 346 3 gusting 10 7.8
2014-Nov-22 04:01 345 4 gusting 5 7.8
2014-Nov-22 03:57 355 3 gusting 9 7.8
2014-Nov-22 03:51 341 6 gusting 8 7.8
2014-Nov-22 03:42 315 4 gusting 10 7.8
2014-Nov-22 03:31 326 4 gusting 7 7.8
2014-Nov-22 03:13 317 3 gusting 8 7.8
2014-Nov-22 03:01 325 4 gusting 7 8.3
2014-Nov-22 02:57 306 4 gusting 10 7.8
2014-Nov-22 02:51 345 6 gusting 10 8.3
2014-Nov-22 02:42 309 5 gusting 10 8.3
2014-Nov-22 02:31 317 6 gusting 10 8.3
2014-Nov-22 02:11 325 6 gusting 11 8.9
2014-Nov-22 02:01 328 10 gusting 15 8.9
2014-Nov-22 01:57 290 10 gusting 16 8.3
2014-Nov-22 01:51 312 7 gusting 13 8.3
2014-Nov-22 01:41 359 6 gusting 10 8.3
2014-Nov-22 01:31 333 6 gusting 10 8.3
2014-Nov-22 01:11 330 6 gusting 13 8.9
2014-Nov-22 01:01 312 5 gusting 7 8.9
2014-Nov-22 00:55 360 6 gusting 10 8.3
2014-Nov-22 00:41 330 5 gusting 10 8.9
2014-Nov-22 00:40 349 4 gusting 13 8.9
2014-Nov-22 00:31 332 6 gusting 12 8.9
2014-Nov-22 00:26 333 4 gusting 10 8.9
2014-Nov-22 00:11 356 5 gusting 10 8.9
2014-Nov-22 00:10 355 5 gusting 13 8.9
2014-Nov-22 00:01 319 5 gusting 10 8.9
2014-Nov-21 23:55 360 6 gusting 14 8.9
2014-Nov-21 23:41 331 6 gusting 10 9.4
2014-Nov-21 23:31 318 7 gusting 13 9.4
2014-Nov-21 23:11 318 6 gusting 10 9.4
2014-Nov-21 23:01 332 7 gusting 10 9.4
2014-Nov-21 22:55 315 5 gusting 13 8.9
2014-Nov-21 22:41 321 6 gusting 10 9.4
2014-Nov-21 22:39 333 6 gusting 13 8.9
2014-Nov-21 22:31 314 6 gusting 10 9.4
2014-Nov-21 22:24 296 5 gusting 13 8.9
2014-Nov-21 22:11 311 5 gusting 7 9.4
2014-Nov-21 22:09 302 6 gusting 14 9.4
2014-Nov-21 22:01 319 7 gusting 14 9.4
2014-Nov-21 21:54 327 6 gusting 13 8.9
2014-Nov-21 21:41 312 6 gusting 10 9.4
2014-Nov-21 21:31 316 6 gusting 10 8.9
2014-Nov-21 21:11 316 4 gusting 6 8.9
2014-Nov-21 21:01 325 4 gusting 8 8.9
2014-Nov-21 20:53 343 4 gusting 11 8.9
2014-Nov-21 20:41 320 7 gusting 11 9.4
2014-Nov-21 20:38 347 7 gusting 15 9.4
2014-Nov-21 20:31 305 8 gusting 15 9.4
2014-Nov-21 20:23 319 7 gusting 13 9.4
2014-Nov-21 20:11 324 5 gusting 7 9.4
2014-Nov-21 20:08 300 5 gusting 11 9.4
2014-Nov-21 20:01 312 5 gusting 8 9.4
2014-Nov-21 19:52 319 3 gusting 8 9.4
2014-Nov-21 19:41 336 2 gusting 8 9.4
2014-Nov-21 19:37 298 5 gusting 9 9.4
2014-Nov-21 19:31 9.4
2014-Nov-21 19:22 303 4 gusting 10 9.4
2014-Nov-21 19:11 338 1 gusting 5 9.4
2014-Nov-21 19:07 029 1 gusting 9 9.4
2014-Nov-21 19:01 312 2 gusting 10 10.0
2014-Nov-21 18:52 348 0 gusting 4 9.4
2014-Nov-21 18:41 306 1 gusting 2 10.0
2014-Nov-21 18:31 307 5 gusting 7 10.0
2014-Nov-21 18:11 320 6 gusting 10 10.0
2014-Nov-21 18:01 327 6 gusting 10 10.0
2014-Nov-21 17:51 335 5 gusting 10 10.0
2014-Nov-21 17:41 330 5 gusting 6 10.0
2014-Nov-21 17:31 319 5 gusting 10 10.6
2014-Nov-21 17:11 309 5 gusting 8 10.6
2014-Nov-21 17:01 309 7 gusting 8 10.6
2014-Nov-21 16:51 323 7 gusting 14 10.6
2014-Nov-21 16:41 323 5 gusting 5 11.1
2014-Nov-21 16:31 306 6 gusting 7 11.1
2014-Nov-21 16:11 283 11.1
2014-Nov-21 16:01 296 2 gusting 6 11.7
2014-Nov-21 15:51 318 2 gusting 6 11.7
2014-Nov-21 15:50 342 3 gusting 10 11.1
2014-Nov-21 15:41 326 8 gusting 13 11.7
2014-Nov-21 15:31 329 7 gusting 11 11.7
2014-Nov-21 15:11 333 6 gusting 13 12.2
2014-Nov-21 15:01 326 6 gusting 8 12.8
2014-Nov-21 14:51 336 7 gusting 18 12.8
2014-Nov-21 14:50 012 9 gusting 21 12.8
2014-Nov-21 14:41 320 13 gusting 19 12.8
2014-Nov-21 14:31 318 12 gusting 18 13.3
2014-Nov-21 14:19 336 13 gusting 22 13.3
2014-Nov-21 14:04 326 12 gusting 17 13.3
2014-Nov-21 13:51 313 11 gusting 17 13.9
2014-Nov-21 13:50 331 8 gusting 18 13.3
2014-Nov-21 13:41 327 12 gusting 13 13.9
2014-Nov-21 13:34 355 10 gusting 22 13.9
2014-Nov-21 13:19 325 9 gusting 20 13.9
2014-Nov-21 13:04 360 13 gusting 21 13.9
2014-Nov-21 12:51 326 13 gusting 17 14.4
2014-Nov-21 12:49 290 13 gusting 24 14.4
2014-Nov-21 12:33 297 11 gusting 25 13.9
2014-Nov-21 12:18 323 12 gusting 22 14.4
2014-Nov-21 12:03 309 11 gusting 21 14.4
2014-Nov-21 11:48 323 10 gusting 16 14.4
2014-Nov-21 11:33 332 10 gusting 23 14.4
2014-Nov-21 11:18 324 8 gusting 20 14.4
2014-Nov-21 11:03 313 11 gusting 24 14.4
2014-Nov-21 10:51 314 13 gusting 14 14.4
2014-Nov-21 10:47 296 12 gusting 19 14.4
2014-Nov-21 10:32 279 13 gusting 19 14.4
2014-Nov-21 10:17 300 12 gusting 21 14.4
2014-Nov-21 10:02 355 12 gusting 21 14.4
2014-Nov-21 09:47 355 6 gusting 15 14.4
2014-Nov-21 09:32 351 8 gusting 20 13.9
2014-Nov-21 09:16 298 7 gusting 19 13.9
2014-Nov-21 09:01 327 11 gusting 19 13.9
2014-Nov-21 08:51 320 6 gusting 13 13.3
2014-Nov-21 08:46 340 11 gusting 18 12.8
2014-Nov-21 08:31 325 10 gusting 13 12.8
2014-Nov-21 08:16 317 9 gusting 16 12.2
2014-Nov-21 08:01 333 5 gusting 10 12.8
2014-Nov-21 07:51 320 6 gusting 8 12.2
2014-Nov-21 07:46 360 6 gusting 12 12.2
2014-Nov-21 07:31 303 6 gusting 6 11.7
2014-Nov-21 07:15 264 2 gusting 13 11.1
2014-Nov-21 07:01 325 6 gusting 7 11.1
2014-Nov-21 06:51 322 10 gusting 13 11.1
2014-Nov-21 06:45 298 6 gusting 13 10.6
2014-Nov-21 06:31 342 6 gusting 13 10.6
2014-Nov-21 06:14 033 6 gusting 12 10.6
2014-Nov-21 06:01 344 6 gusting 15 10.6
2014-Nov-21 05:51 342 6 gusting 7 10.0
2014-Nov-21 05:44 308 6 gusting 13 10.0
2014-Nov-21 05:31 334 6 gusting 13 10.0
2014-Nov-21 05:14 341 7 gusting 15 10.0
2014-Nov-21 05:01 345 6 gusting 13 10.0
2014-Nov-21 04:44 011 6 gusting 17 10.0
2014-Nov-21 04:31 339 7 gusting 10 10.0
2014-Nov-21 04:13 005 6 gusting 14 10.0
2014-Nov-21 04:01 322 12 gusting 15 10.6
2014-Nov-21 03:58 346 10 gusting 19 10.0
2014-Nov-21 03:51 321 10 gusting 17 10.6
2014-Nov-21 03:43 311 9 gusting 19 10.0
2014-Nov-21 03:31 322 10 gusting 17 10.6
2014-Nov-21 03:13 344 7 gusting 16 10.6
2014-Nov-21 03:01 320 10 gusting 15 10.6
2014-Nov-21 02:57 020 7 gusting 15 10.6
2014-Nov-21 02:51 322 8 gusting 11 10.6
2014-Nov-21 02:42 302 7 gusting 14 10.6
2014-Nov-21 02:31 322 12 gusting 14 10.6
2014-Nov-21 02:12 341 8 gusting 17 10.6
2014-Nov-21 02:01 351 8 gusting 11 11.1
2014-Nov-21 01:42 327 7 gusting 14 10.6
2014-Nov-21 01:31 324 8 gusting 13 11.1
2014-Nov-21 01:12 349 9 gusting 21 10.6
2014-Nov-21 01:01 339 8 gusting 15 11.1
2014-Nov-21 00:41 332 12 gusting 17 11.1
2014-Nov-21 00:31 337 10 gusting 15 11.1
2014-Nov-21 00:12 348 6 gusting 16 10.6
2014-Nov-21 00:01 345 10 gusting 13 11.1
2014-Nov-20 23:56 304 8 gusting 19 11.1
2014-Nov-20 23:41 323 10 gusting 12 11.1
2014-Nov-20 23:31 336 10 gusting 15 11.1
2014-Nov-20 23:11 346 11 gusting 17 11.7
2014-Nov-20 23:01 329 6 gusting 15 11.1